sat.trackr.live / text

‹ back to catalog

STARLINK-33650

NORAD 63321 · 2025-057Q

PAYLOAD ACTIVE UNKNOWN

§ Identity

Operator
Country
US
Launch date
2025-03-18
Launch site
AFETR
Launch vehicle
Mass (kg)
RCS (m²)

Purposes: comms

External: N2YO · Heavens-Above · Gunter

§ Orbital elements

Epoch: 2026-09-20T13:33:39.043872Z

Period
94.27 min
Inclination
43.0032°
Eccentricity
0.0001421
Mean motion
15.27594968 rev/d
Perigee alt
482.0 km
Apogee alt
484.0 km
Semi-major
6,861.1 km
B*
4.5995e-4
RAAN
10.0742°
Arg perigee
273.0527°
Mean anomaly
87.0162°
Rev number
8,554

§ Raw data

STARLINK-336501 63321U 25057Q   26263.56503523  .00012422  00000+0  45995-3 0  99972 63321  43.0032  10.0742 0001421 273.0527  87.0162 15.27594968 85549

JSON: /api/v1/satellites/63321 · /tle

For live sub-satellite position, see the globe view (requires WebGL).

§ Visibility from observer

Set your observer location to see the next 7 days of passes ≥ 10°. The values pass through the URL so the page stays shareable.

No JS? Fill the form by hand. The geolocation button needs JavaScript.